This demonstration page uses our WeatherBlox Daily Observations layout. Learn more.

Left ArrowRight Arrow

Hourly Observations for March 4, 2022

Temp ( °F °C ) Dew Point ( °F °C ) Humidity (%) Winds ( mph kmh ) Pressure ( in mb ) Visibility ( mi km ) Precip ( " mm )
12:53 am 00:53 Clear 59 15 47 8.3 64 64 SE 14 22 29.94 1014 10 16 0.00 0.00
1:53 am 01:53 Clear 57 13.9 47 8.3 69 69 SE 9 15 29.94 1014 10 16 0.00 0.00
2:53 am 02:53 Clear 57 13.9 48 8.9 72 72 ESE 12 19 29.92 1013 10 16 0.00 0.00
3:53 am 03:53 Clear 56 13.3 48 8.9 75 75 ESE 12 19 29.89 1012 10 16 0.00 0.00
4:53 am 04:53 Clear 55 12.8 49 9.4 80 80 SE 12 19 29.89 1012 10 16 0.00 0.00
5:53 am 05:53 Clear 54 12.2 50 10 87 87 SE 9 15 29.89 1012 10 16 0.00 0.00
6:53 am 06:53 Clear 53 11.7 50 10 89 89 SE 12 19 29.90 1012 10 16 0.00 0.00
7:53 am 07:53 Sunny 54 12.2 51 10.6 90 90 SE 13 20 29.91 1013 9 14 0.00 0.00
8:53 am 08:53 Sunny 59 15 52 11.1 78 78 SSE 14 22 29.93 1014 10 16 0.00 0.00
9:53 am 09:53 Sunny 62 16.7 51 10.6 67 67 S 9 15 29.93 1014 10 16 0.00 0.00
10:53 am 10:53 Sunny 66 18.9 50 10 56 56 S 8 13 29.91 1013 10 16 0.00 0.00
11:53 am 11:53 Sunny 70 21.1 47 8.3 44 44 SSE 8 13 29.89 1012 10 16 0.00 0.00
12:53 pm 12:53 Sunny 74 23.3 44 6.7 34 34 S 12 19 29.85 1011 10 16 0.00 0.00
1:53 pm 13:53 Sunny 78 25.6 40 4.4 26 26 S 7 11 29.79 1009 10 16 0.00 0.00
2:53 pm 14:53 Sunny 81 27.2 36 2.2 20 20 SSE 8 13 29.76 1008 10 16 0.00 0.00
3:53 pm 15:53 Sunny 83 28.3 30 -1.1 15 15 S 17 28 29.73 1007 10 16 0.00 0.00
4:53 pm 16:53 Sunny 84 28.9 28 -2.2 13 13 SSE 14 22 29.70 1006 10 16 0.00 0.00
5:53 pm 17:53 Sunny 83 28.3 29 -1.7 14 14 S 13 20 29.68 1005 10 16 0.00 0.00
6:53 pm 18:53 Clear 76 24.4 29 -1.7 18 18 SSE 9 15 29.69 1005 10 16 0.00 0.00
7:53 pm 19:53 Clear 73 22.8 42 5.6 33 33 ESE 10 17 29.68 1005 10 16 0.00 0.00
8:53 pm 20:53 Clear 69 20.6 44 6.7 41 41 E 10 17 29.68 1005 10 16 0.00 0.00
9:53 pm 21:53 Clear 70 21.1 28 -2.2 21 21 SSE 17 28 29.69 1006 10 16 0.00 0.00
10:53 pm 22:53 Clear 69 20.6 52 11.1 55 55 SSE 20 31 29.70 1006 10 16 0.00 0.00
11:35 pm 23:35 Clear 67 19.4 49 9.4 53 53 W 8 13 29.75 1007 10 16 0.00 0.00
11:53 pm 23:53 Clear 68 20 48 8.9 49 49 SSW 10 17 29.74 1007 10 16 0.00 0.00

Powered by AerisWeather